Content
SEND FEEDBACK

Daily
Averages
Monthly
Summary
United States of America

WARRENTON, MISSOURI


Home > North America > United States > Missouri
Elevation: 268 meters     Latitude: 38 49N     Longitude: 091 08W

WEATHER
 
SELECT A DAY
Number of Records: 59,222;   Date Range: 2/9/12 - 11/22/14
 
SHARE

PRINT THIS DATA

[ ← Previous Day ]
WEATHER ALMANAC - 31 JANUARY, 2013
[ Next Day → ]
[ °F ]   °C
Weather ElementAverageHighLow
Temperature-4 °C0 °C (10:35 am)-11 °C (11:15 pm)
Dewpoint-10.1 °C-5 °C (1:35 pm)-18 °C (11:15 pm)
Humidity63.2 %80 % (2:15 pm)47 % (3:35 pm)
Barometer1019 hPa1029.8 hPa (11:15 pm)1014.2 hPa (12:35 am)
Wind Speed21.4 km/h42.6 km/h (4:15 pm)
Wind Gust57.5 km/h (3:35 pm)
Weather ElementAverage
Visibility15.3 km
Wind DirectionWNW (292.6 °)

Weather ElementTotal
Precipitation4.32 mm
Heating Degree Days23.8 (Base 18.3)
Averaged from 65 records on 31 January, 2013
WEATHER CONDITIONS BREAKOUT
WIND DIRECTION BREAKOUT
WEATHER BY HOUR - 31 JANUARY, 2013
[ °F ]   °C
Local TimeTemperatureDewpointHumidityBarometerVisibilityWind DirectionWind SpeedGust SpeedPrecipitationEventsConditions
12:35 AM-3 °C-8 °C69 %1014.2 hPa16.1 kmWNW (300°)18.5 km/h40.7 km/hSnowLight Snow
12:55 AM-3 °C-7 °C74 %1014.2 hPa16.1 kmWNW (290°)20.4 km/h27.8 km/hOvercast
1:15 AM-3 °C-7 °C74 %1014.2 hPa16.1 kmWest (280°)16.7 km/h29.6 km/hOvercast
1:35 AM-3 °C-7 °C74 %1014.6 hPa16.1 kmWest (280°)11.1 km/hSnowLight Snow
1:55 AM-3 °C-8 °C69 %1014.6 hPa16.1 kmWest (280°)13 km/h25.9 km/hOvercast
2:15 AM-3 °C-8 °C69 %1014.6 hPa16.1 kmWNW (300°)25.9 km/h38.9 km/hRainLight Rain
2:35 AM-3 °C-8 °C69 %1014.6 hPa16.1 kmWest (280°)13 km/h29.6 km/hOvercast
2:55 AM-3 °C-8 °C69 %1014.6 hPa16.1 kmWest (280°)9.3 km/hOvercast
3:15 AM-3 °C-8 °C69 %1014.6 hPa16.1 kmWest (280°)9.3 km/hOvercast
3:35 AM-3 °C-8 °C69 %1014.2 hPa16.1 kmWest (280°)11.1 km/hOvercast
3:55 AM-3 °C-7 °C74 %1014.2 hPa16.1 kmWNW (290°)16.7 km/h25.9 km/hOvercast
4:15 AM-3 °C-7 °C74 %1014.2 hPa16.1 kmWest (280°)14.8 km/h25.9 km/hOvercast
4:35 AM-3 °C-9 °C64 %1014.6 hPa16.1 kmWest (270°)16.7 km/h31.5 km/hOvercast
4:55 AM-3 °C-9 °C64 %1014.2 hPa16.1 kmWest (280°)16.7 km/h29.6 km/hOvercast
5:15 AM-3 °C-9 °C64 %1014.6 hPa16.1 kmWest (280°)11.1 km/h27.8 km/hOvercast
5:35 AM-3 °C-9 °C64 %1014.6 hPa16.1 kmWest (280°)11.1 km/h29.6 km/hOvercast
6:15 AM-3 °C-9 °C64 %1014.9 hPa16.1 kmWest (270°)9.3 km/hOvercast
6:35 AM-3 °C-9 °C64 %1015.2 hPa16.1 kmWest (270°)7.4 km/hOvercast
6:55 AM-3 °C-8 °C69 %1015.2 hPa16.1 kmWest (280°)7.4 km/hOvercast
7:15 AM-3 °C-8 °C69 %1015.2 hPa16.1 kmWest (260°)7.4 km/hOvercast
7:35 AM-3 °C-8 °C69 %1015.9 hPa16.1 kmWest (260°)7.4 km/hOvercast
7:55 AM-3 °C-8 °C69 %1015.9 hPa16.1 kmWest (260°)7.4 km/hOvercast
8:15 AM-3 °C-8 °C69 %1015.9 hPa16.1 kmWest (260°)9.3 km/hOvercast
8:35 AM-2 °C-8 °C64 %1016.6 hPa16.1 kmWest (270°)9.3 km/hOvercast
8:55 AM-2 °C-8 °C64 %1016.9 hPa16.1 kmWest (270°)9.3 km/hOvercast
9:15 AM-2 °C-8 °C64 %1017.3 hPa16.1 kmWest (260°)13 km/hMostly Cloudy
9:35 AM-2 °C-8 °C64 %1017.3 hPa16.1 kmWest (270°)13 km/hPartly Cloudy
9:55 AM-2 °C-7 °C69 %1017.6 hPa16.1 kmWest (270°)16.7 km/hMostly Cloudy
10:15 AM-1 °C-7 °C64 %1017.3 hPa16.1 kmWNW (290°)20.4 km/h29.6 km/hOvercast
10:35 AM0 °C-7 °C60 %1017.6 hPa16.1 kmWNW (290°)16.7 km/h25.9 km/hOvercast
10:55 AM0 °C-7 °C60 %1017.6 hPa16.1 kmWest (270°)16.7 km/h27.8 km/hMostly Cloudy
11:15 AM0 °C-7 °C60 %1017.3 hPa16.1 kmWest (270°)13 km/h29.6 km/hOvercast
11:35 AM0 °C-7 °C60 %1017.3 hPa16.1 kmWNW (300°)18.5 km/h27.8 km/hOvercast
12:15 PM0 °C-7 °C60 %1016.6 hPa16.1 kmWNW (300°)20.4 km/h27.8 km/hOvercast
12:35 PM0 °C-7 °C60 %1016.3 hPa16.1 kmWest (280°)20.4 km/h33.3 km/hOvercast
12:55 PM0 °C-7 °C60 %1016.6 hPa16.1 kmWNW (290°)25.9 km/h40.7 km/hMostly Cloudy
1:15 PM0 °C-6 °C64 %1016.6 hPa6.4 kmWest (280°)22.2 km/h44.4 km/hSnowLight Snow
1:35 PM0 °C-5 °C69 %1016.9 hPa6.4 kmWNW (290°)22.2 km/h38.9 km/h0.25 mmSnowLight Snow
1:55 PM-1 °C-5 °C75 %1017.3 hPa3.2 kmWest (280°)25.9 km/h40.7 km/h1.78 mmSnowLight Snow
2:15 PM-2 °C-5 °C80 %1017.9 hPa4 kmWNW (300°)29.6 km/h44.4 km/h0.76 mmSnowLight Snow
2:35 PM-2 °C-6 °C74 %1018.3 hPa3.2 kmWNW (300°)35.2 km/h46.3 km/h1.52 mmSnowLight Snow
3:15 PM-2 °C-10 °C55 %1018.6 hPa16.1 kmWNW (290°)37 km/h51.8 km/hMostly Cloudy
3:35 PM-2 °C-12 °C47 %1019 hPa16.1 kmNW (310°)38.9 km/h57.5 km/hOvercast
3:55 PM-2 °C-12 °C47 %1019.6 hPa16.1 kmNW (320°)37 km/h51.8 km/hOvercast
4:15 PM-4 °C-12 °C54 %1020.3 hPa16.1 kmNW (320°)42.6 km/h55.5 km/hMostly Cloudy
4:35 PM-4 °C-12 °C54 %1021 hPa16.1 kmNNW (330°)35.2 km/h51.8 km/hMostly Cloudy
4:55 PM-5 °C-12 °C59 %1021.7 hPa16.1 kmNW (320°)37 km/h48.1 km/hMostly Cloudy
5:15 PM-6 °C-13 °C58 %1022 hPa16.1 kmNW (320°)33.3 km/h44.4 km/hScattered Clouds
5:35 PM-7 °C-14 °C58 %1022.4 hPa16.1 kmNW (310°)33.3 km/h40.7 km/hClear
5:55 PM-7 °C-14 °C58 %1023 hPa16.1 kmNW (310°)25.9 km/h31.5 km/hScattered Clouds
6:15 PM-7 °C-14 °C58 %1023.7 hPa16.1 kmNW (310°)29.6 km/h35.2 km/hScattered Clouds
6:35 PM-8 °C-15 °C58 %1024.4 hPa16.1 kmNW (310°)29.6 km/h44.4 km/hScattered Clouds
6:55 PM-8 °C-15 °C58 %1024.4 hPa16.1 kmNW (310°)25.9 km/hScattered Clouds
7:15 PM-8 °C-14 °C63 %1025.1 hPa16.1 kmNW (320°)27.8 km/h35.2 km/hOvercast
7:35 PM-8 °C-15 °C58 %1025.7 hPa16.1 kmNW (320°)25.9 km/hOvercast
7:55 PM-8 °C-15 °C58 %1026.1 hPa16.1 kmNW (310°)25.9 km/h42.6 km/hOvercast
8:15 PM-9 °C-15 °C62 %1026.1 hPa16.1 kmNW (320°)35.2 km/h46.3 km/hMostly Cloudy
8:35 PM-9 °C-16 °C58 %1026.4 hPa16.1 kmNW (310°)31.5 km/h42.6 km/hScattered Clouds
8:55 PM-9 °C-17 °C53 %1027.1 hPa16.1 kmNW (320°)29.6 km/h48.1 km/hMostly Cloudy
9:15 PM-10 °C-17 °C57 %1027.4 hPa16.1 kmNNW (330°)25.9 km/h46.3 km/hMostly Cloudy
9:35 PM-10 °C-17 °C57 %1028.1 hPa16.1 kmNW (320°)25.9 km/h35.2 km/hScattered Clouds
10:15 PM-10 °C-17 °C57 %1028.8 hPa16.1 kmNW (310°)25.9 km/h37 km/hClear
10:35 PM-10 °C-17 °C57 %1029.1 hPa16.1 kmNW (310°)29.6 km/h35.2 km/hClear
11:15 PM-11 °C-18 °C57 %1029.8 hPa16.1 kmNW (310°)29.6 km/h37 km/hClear
11:35 PM-11 °C-18 °C57 %1029.5 hPa16.1 kmNW (310°)31.5 km/h38.9 km/hClear
Hourly data recorded from KFYG, located 0 kilometers away from Warrenton, Missouri







STORIES FROM OUR PARTNERS